Location: *
(33.3200°N, 8.3381°W)
Time: 21:10:46
(UTC+00:00)

CZ-4C R/B - Pass Details

Date: 09 April 2020
Orbit: 637 x 1365 km, 63.4° (Epoch: 02 June)

Event Time Altitude Azimuth Distance (km) Brightness Sun altitude
Rises 22:39:46 0° 336° (NNW) 3,924 6.5 -40.5°
Reaches altitude 10° 22:42:28 10° 343° (NNW) 3,063 5.7 -40.8°
Enters shadow 22:47:01 35° 11° (NNE) 1,901 4.1 -41.4°
